SAS427 ENAT-ENGM

Flight info

Callsign SAS427
Flight time N/A
Altitude 38000
Route LUVED DCT KUNUB DCT ABASU DCT AMIMO DCT SOMUB/N0430F390 DCT ABUNO DCT INREX
Aircraft A20N/M-SDE2E3FGHIRWXY/LB1

Departure

Time 2026-04-28 00:55
Airport Alta Airport (ENAT)

Arrival

Time N/A
Airport Oslo-Gardermoen International Airport (ENGM)
Time Latitude Longitude Altitude Speed Heading
2026-04-28 00:39 69.97804 23.34928 20 ft 0 kts 211°
2026-04-28 00:44 69.97809 23.34936 20 ft 1 kts 211°
2026-04-28 00:44 69.97815 23.34948 20 ft 1 kts 210°
2026-04-28 00:44 69.97822 23.34959 20 ft 1 kts 187°
2026-04-28 00:45 69.97830 23.34961 20 ft 1 kts 163°
2026-04-28 00:45 69.97837 23.34953 20 ft 1 kts 139°
2026-04-28 00:45 69.97843 23.34938 20 ft 1 kts 114°
2026-04-28 00:45 69.97845 23.34923 22 ft 0 kts 97°
2026-04-28 00:50 69.97847 23.34957 20 ft 4 kts 79°
2026-04-28 00:50 69.97855 23.35067 20 ft 7 kts 75°
2026-04-28 00:51 69.97882 23.35224 20 ft 10 kts 53°
2026-04-28 00:51 69.97934 23.35392 20 ft 12 kts 51°
2026-04-28 00:51 69.97935 23.35603 20 ft 12 kts 122°
2026-04-28 00:51 69.97864 23.35925 18 ft 25 kts 122°
2026-04-28 00:52 69.97766 23.36386 20 ft 28 kts 121°
2026-04-28 00:52 69.97675 23.36890 21 ft 29 kts 117°
2026-04-28 00:52 69.97568 23.37443 23 ft 33 kts 121°
2026-04-28 00:52 69.97451 23.38030 24 ft 34 kts 118°
2026-04-28 00:53 69.97333 23.38557 19 ft 24 kts 138°
2026-04-28 00:53 69.97238 23.38883 22 ft 16 kts 82°
2026-04-28 00:53 69.97266 23.38963 22 ft 1 kts 334°
2026-04-28 00:53 69.97266 23.38947 21 ft 3 kts 289°
2026-04-28 00:54 69.97276 23.38787 21 ft 12 kts 293°
2026-04-28 00:54 69.97293 23.38704 21 ft 0 kts 301°
2026-04-28 00:55 69.97293 23.38702 21 ft 1 kts 301°
2026-04-28 00:55 69.97424 23.38066 22 ft 83 kts 302°
2026-04-28 00:55 69.97869 23.35959 51 ft 154 kts 305°
2026-04-28 00:55 69.98434 23.33158 829 ft 159 kts 302°
2026-04-28 00:56 69.98946 23.30625 1727 ft 158 kts 296°
2026-04-28 00:56 69.99147 23.27513 2493 ft 171 kts 270°
2026-04-28 00:56 69.98977 23.23890 3269 ft 192 kts 257°
2026-04-28 00:56 69.98343 23.20170 3840 ft 220 kts 237°
2026-04-28 00:57 69.97223 23.16716 4506 ft 247 kts 224°
2026-04-28 00:57 69.95805 23.13582 5380 ft 262 kts 218°